This demonstration page uses our WeatherBlox Daily Observations layout. Learn more.

Left ArrowRight Arrow

41.12389, -100.76542

Hourly Observations for March 25, 2021

Temp ( °F °C ) Dew Point ( °F °C ) Humidity (%) Winds ( mph kmh ) Pressure ( in mb ) Visibility ( mi km ) Precip ( " mm )
12:53 am 00:53 Clear 31 -0.6 27 -2.8 85 85 E 6 9 29.87 1012 10 16 0.00 0.00
1:53 am 01:53 Clear 34 1.1 29 -1.7 82 82 SE 5 7 29.85 1011 10 16 0.00 0.00
2:53 am 02:53 Clear 35 1.7 30 -1.1 82 82 S 8 13 29.83 1010 10 16 0.00 0.00
3:53 am 03:53 Clear 34 1.1 29 -1.7 82 82 S 7 11 29.81 1010 10 16 0.00 0.00
4:53 am 04:53 Clear 34 1.1 30 -1.1 85 85 Calm 29.80 1009 10 16 0.00 0.00
5:53 am 05:53 Clear 33 0.6 30 -1.1 89 89 SSE 6 9 29.80 1009 10 16 0.00 0.00
6:53 am 06:53 Partly Cloudy 30 -1.1 26 -3.3 85 85 ESE 5 7 29.81 1010 10 16 0.00 0.00
7:03 am 07:03 Mostly Clear 29 -1.7 26 -3.3 89 89 E 3 6 29.90 1013 10 16 0.00 0.00
7:37 am 07:37 Mostly Cloudy 27 -2.8 24 -4.4 89 89 ESE 6 9 29.92 1013 10 16 0.00 0.00
7:53 am 07:53 Cloudy 29 -1.7 26 -3.3 89 89 ESE 6 9 29.83 1010 10 16 0.00 0.00
8:24 am 08:24 Partly Cloudy 33 0.6 30 -1.1 89 89 SE 5 7 29.88 1012 7 11 0.00 0.00
8:53 am 08:53 Mostly Sunny 35 1.7 32 0 89 89 SSE 3 6 29.83 1010 10 16 0.00 0.00
9:06 am 09:06 Mostly Cloudy 35 1.7 32 0 89 89 VRB 3 6 29.86 1011 10 16 0.00 0.00
9:53 am 09:53 Partly Cloudy 40 4.4 34 1.1 79 79 S 9 15 29.81 1010 10 16 0.00 0.00
10:53 am 10:53 Partly Cloudy 45 7.2 36 2.2 71 71 S 16 26 29.81 1009 10 16 0.00 0.00
11:07 am 11:07 Mostly Cloudy 46 7.8 35 1.7 66 66 S 14 22 29.80 1009 10 16 0.00 0.00
11:53 am 11:53 Mostly Cloudy 49 9.4 34 1.1 56 56 S 17 28 29.80 1009 10 16 0.00 0.00
12:32 pm 12:32 Mostly Cloudy 50 10 33 0.6 52 52 S 16 26 29.75 1008 10 16 0.00 0.00
12:53 pm 12:53 Mostly Cloudy 51 10.6 33 0.6 50 50 S 14 22 29.78 1008 10 16 0.00 0.00
1:53 pm 13:53 Partly Cloudy 53 11.7 32 0 45 45 S 18 30 29.76 1008 10 16 0.00 0.00
2:53 pm 14:53 Mostly Sunny 51 10.6 32 0 48 48 S 18 30 29.75 1007 10 16 0.00 0.00
3:53 pm 15:53 Partly Cloudy 53 11.7 33 0.6 47 47 SSW 16 26 29.71 1006 10 16 0.00 0.00
4:53 pm 16:53 Sunny 54 12.2 31 -0.6 42 42 S 10 17 29.71 1006 10 16 0.00 0.00
5:53 pm 17:53 Sunny 55 12.8 32 0 42 42 S 9 15 29.70 1006 10 16 0.00 0.00
6:53 pm 18:53 Sunny 53 11.7 31 -0.6 43 43 S 10 17 29.70 1006 10 16 0.00 0.00
7:53 pm 19:53 Sunny 47 8.3 30 -1.1 52 52 SSE 6 9 29.73 1007 10 16 0.00 0.00
8:53 pm 20:53 Clear 38 3.3 29 -1.7 70 70 ESE 8 13 29.75 1007 10 16 0.00 0.00
9:53 pm 21:53 Clear 37 2.8 29 -1.7 73 73 ESE 8 13 29.75 1008 10 16 0.00 0.00
10:53 pm 22:53 Clear 38 3.3 30 -1.1 73 73 E 8 13 29.76 1008 10 16 0.00 0.00
11:53 pm 23:53 Clear 43 6.1 31 -0.6 63 63 SE 14 22 29.76 1008 10 16 0.00 0.00

Powered by AerisWeather